Погода в Отрадном

Россия / Ростовская область     47°23′37″N   38°44′07″E
темп.,
°C
ветер,
м/с
пор.,
м/с
влажн.,
%
обл.,
%
осадки,
мм/ч
давл.,
гПа
погр.,
м
7 мая, пт
пт700:00+12зюз3478100 0.0 101260
03:00+10з3555100 0.0 101274
06:00+10з2265100 0.0 101345
09:00+15зсз456367 0.0 1015601
12:00+20зсз465042 0.0 10151866
15:00+21з4541100 0.0 10152217
18:00+19зюз22466 0.0 10151059
21:00+12юз358856 0.0 101776
8 мая, сб
сб800:00+11ю22885 0.0 101614
03:00+11ююв359158 0.0 101572
06:00+11ююв3478100 0.0 1015103
09:00+16ююв5767100 0.0 1014501
12:00+19ю6752100 0.0 10131046
15:00+20ююз674949 0.0 10121054
18:00+19юз47555 0.0 1011671
21:00+14зюз346818 0.0 101155
9 мая, вс
вс900:00+12с71185100 0.0 1011426
03:00+10с91475100 0.1 1013786
06:00+8с81491100 9.4 1012778
09:00+7с101492100 19.5 1013822
12:00+7с71387100 3.4 10151195
15:00+9ссз91485100 5.2 10171221
18:00+10ссз81474100 1.3 10191272
21:00+8сз51176100 1.3 1021448
10 мая, пн
пн1000:00+8зсз51278100 0.0 1021385
03:00+8ссз71277100 0.1 1021667
06:00+7сз81382100 0.9 1021921
09:00+5ссз81493100 5.8 10201024
12:00+6ссз71390100 3.3 1019893
15:00+7ссз61294100 6.1 1018646
18:00+7ссз51196100 4.4 1016583
21:00+9с101886100 4.3 1019872
11 мая, вт
вт1100:00+9всв4798100 0.2 1016351
03:00+8в3599100 1.3 1017273
06:00+8вюв2397100 0.1 1018204
09:00+8в3693100 0.1 1019329
12:00+10вюв6785100 0.2 1020890
15:00+8вюв61194100 1.3 1022753
18:00+9в468998 1.9 1022418
21:00+8всв5109224 1.9 1022340